Weather in Kichmalka

Russia / The Kabardino-Balkar Republic     43°47′35″N   42°56′27″E
temp.,
°C
wind,
m/s
gust,
m/s
humid.,
%
clouds,
%
prec.,
mm/h
press.,
hPa
HPBL,
m
2 march, tue
tue200:00−3wsw1279100 0.0 102930
03:00−4wsw227099 0.0 103033
06:00−5wsw226427 0.0 103028
09:00−3wsw115513 0.0 1029165
12:000ese11570 0.0 1027494
15:00+1ne22560 0.0 1026909
18:00−2ne11790 0.0 102521
21:00−3sw22740 0.0 102627
3 march, wed
wed300:00−4sw225326 0.0 102527
03:00−4w234822 0.0 102338
06:00−4s1253100 0.0 102221
09:00−2nw0155100 0.0 1021163
12:00−1ne2164100 0.0 1020579
15:00−1n468396 0.2 1020546
18:00−3nw6118493 1.3 1023785
21:00−3wnw5117296 1.4 1026986
4 march, thu
thu400:00−5wnw377666 0.1 1028485
03:00−6wsw226844 0.2 1028218
06:00−6sw11550 0.0 102959
09:00−3e00450 0.0 1028208
12:00−1ene11490 0.0 1026503
15:000ene21540 0.0 1024643
18:00−2ese11760 0.0 102421
21:00−3ssw11760 0.0 102422
5 march, fri
fri500:00−3sw11630 0.0 102321
03:00−2sw11520 0.0 102221
06:00−2sw22470 0.0 102222
09:00+2sw11400 0.0 102170
12:00+5ene21380 0.0 1019460
15:00+5e21410 0.0 1019393
18:00+1ssw11620 0.0 102022
21:000sw33590 0.0 102126
6 march, sat
sat600:000wsw33437 0.0 102126
03:00+1wsw33366 0.0 102027
06:00+1wsw33331 0.0 101928
09:00+5sw323319 0.0 101875
12:00+9se12234 0.0 1015607
15:00+8sse114352 0.0 101461
18:00+4wnw2247100 0.0 101422
21:00+3wsw2357100 0.0 101524